Weather History for KRWL - November, 2012

Change the Weather History Date:

Thursday, November 1, 2012

  Actual Average Record
Temperature  
Mean Temperature 47 °F 37 °F  
Max Temperature 63 °F 49 °F 66 °F (2014)
Min Temperature 30 °F 25 °F -8 °F (1972)
Degree Days  
Heating Degree Days 18 28  
Month to date heating degree days 18 28  
Since 1 July heating degree days 886 1087  
Cooling Degree Days 0 0  
Month to date cooling degree days 0 0  
Year to date cooling degree days 419 186  
Moisture  
Dew Point 21 °F    
Average Humidity 45    
Maximum Humidity 72    
Minimum Humidity 17    
Precipitation  
Precipitation 0.00 in 0.02 in 0.93 in (2011)
Month to date precipitation 0.00 0.02  
Year to date precipitation 4.24 8.29  
Sea Level Pressure  
Sea Level Pressure 29.93 in    
Wind  
Wind Speed 12 mph (SW)    
Max Wind Speed 29 mph    
Max Gust Speed 38 mph    
Visibility 10 miles    
Events      
T = Trace of Precipitation, MM = Missing Value Source: NWS Daily Summary

Daily Weather History Graph

Daily Weather History Graph

Search for Another Location

Airport or City:

Trip Planner

Search our weather history database for the weather conditions in past years. The results will help you decide how hot, cold, wet, or windy it might be!

Date:

Astronomy

Nov. 01, 2012 Rise Set
Actual Time 7:41 AM MDT 6:02 PM MDT
Civil Twilight 7:12 AM MDT 6:31 PM MDT
Nautical Twilight 6:39 AM MDT 7:04 PM MDT
Astronomical Twilight 6:07 AM MDT 7:36 PM MDT
Moon 8:00 PM MDT (11/1) 10:18 AM MDT (11/1)
Length of Visible Light 11h 18m
Length of Day
10h 20m
Waning Gibbous, 92% of the Moon is Illuminated
Nov 1
Waning Gibbous
Nov 6
Last Quarter
Nov 13
New
Nov 20
First Quarter
Nov 28
Full

Hourly Weather History & Observations

Time (MDT) Temp. Windchill Dew Point Humidity Pressure Visibility Wind Dir Wind Speed Gust Speed Precip Events Conditions
12:53 AM 35.1 °F 32.2 °F 23.0 °F 61% 30.06 in 10.0 mi NE 3.5 mph - N/A   Clear
1:53 AM 37.0 °F - 24.1 °F 59% 30.02 in 10.0 mi Calm Calm - N/A   Clear
2:53 AM 30.0 °F - 23.0 °F 75% 30.01 in 10.0 mi Calm Calm - N/A   Clear
3:53 AM 35.1 °F - 24.1 °F 64% 29.98 in 10.0 mi Calm Calm - N/A   Clear
4:53 AM 35.1 °F - 24.1 °F 64% 29.98 in 10.0 mi Calm Calm - N/A   Clear
6:53 AM 43.0 °F 38.8 °F 23.0 °F 45% 29.96 in 10.0 mi SSW 6.9 mph - N/A   Clear
7:53 AM 46.0 °F 39.3 °F 21.9 °F 39% 29.95 in 10.0 mi SW 16.1 mph 24.2 mph N/A   Clear
8:53 AM 48.0 °F - 23.0 °F 37% 29.98 in 10.0 mi SW 15.0 mph 19.6 mph N/A   Clear
9:53 AM 52.0 °F - 21.9 °F 31% 29.96 in 10.0 mi SW 17.3 mph 26.5 mph N/A   Clear
10:53 AM 57.0 °F - 21.0 °F 25% 29.95 in 10.0 mi SSW 19.6 mph 28.8 mph N/A   Clear
12:53 PM 61.0 °F - 18.0 °F 19% 29.89 in 10.0 mi SW 23.0 mph 35.7 mph N/A   Clear
1:53 PM 62.1 °F - 18.0 °F 18% 29.85 in 10.0 mi SW 27.6 mph 35.7 mph N/A   Clear
2:53 PM 59.0 °F - 18.0 °F 20% 29.89 in 10.0 mi WSW 18.4 mph 27.6 mph N/A   Clear
3:53 PM 59.0 °F - 16.0 °F 19% 29.87 in 10.0 mi SW 21.9 mph 32.2 mph N/A   Clear
4:53 PM 57.0 °F - 18.0 °F 22% 29.88 in 10.0 mi SW 16.1 mph 24.2 mph N/A   Clear
5:53 PM 54.0 °F - 19.0 °F 25% 29.88 in 10.0 mi WSW 11.5 mph - N/A   Clear
6:53 PM 52.0 °F - 18.0 °F 26% 29.87 in 10.0 mi WSW 12.7 mph - N/A   Clear
7:53 PM 48.9 °F - 19.0 °F 31% 29.89 in 10.0 mi WSW 12.7 mph - N/A   Mostly Cloudy
8:53 PM 48.0 °F - 19.9 °F 33% 29.89 in 10.0 mi SW 9.2 mph - N/A   Overcast
9:53 PM 45.0 °F 39.7 °F 19.9 °F 37% 29.89 in 10.0 mi SW 10.4 mph 23.0 mph N/A   Clear
10:53 PM 43.0 °F 38.2 °F 19.9 °F 40% 29.88 in 10.0 mi WSW 8.1 mph - N/A   Clear
11:53 PM 41.0 °F 34.7 °F 21.0 °F 45% 29.88 in 10.0 mi SSW 10.4 mph - N/A   Partly Cloudy